H1 CPF 2 NER 2024 9 8 9 252 01 glonass127 H2 1106403 9127 37869 2024 9 8 0 0 0 2024 9 11 23 45 0 900 1 1 0 0 0 1 H9 10 0 60561 0.00000 0 12655487.214 -8599471.693 -20343499.888 10 0 60561 900.00000 0 11899895.818 -6104534.238 -21658501.364 10 0 60561 1800.00000 0 11302575.901 -3427493.909 -22550262.751 10 0 60561 2700.00000 0 10892434.676 -631927.290 -23001418.795 10 0 60561 3600.00000 0 10686867.688 2213750.395 -23003264.453 10 0 60561 4500.00000 0 10691028.872 5038908.679 -22555918.824 10 0 60561 5400.00000 0 10897640.747 7773417.145 -21668310.705 10 0 60561 6300.00000 0 11287351.675 10350338.010 -20357986.990 10 0 60561 7200.00000 0 11829623.367 12708482.834 -18650748.968 10 0 60561 8100.00000 0 12484109.000 14794726.427 -16580125.198 10 0 60561 9000.00000 0 13202461.342 16565981.954 -14186692.977 10 0 60561 9900.00000 0 13930492.157 17990756.080 -11517263.463 10 0 60561 10800.00000 0 14610589.537 19050221.357 -8623948.154 10 0 60561 11700.00000 0 15184289.362 19738763.826 -5563126.562 10 0 60561 12600.00000 0 15594891.192 20063986.240 -2394336.667 10 0 60561 13500.00000 0 15790007.716 20046170.308 820889.157 10 0 60561 14400.00000 0 15723940.461 19717223.988 4020219.435 10 0 60561 15300.00000 0 15359782.452 19119161.094 7141726.650 10 0 60561 16200.00000 0 14671160.595 18302179.512 10125075.091 10 0 60561 17100.00000 0 13643546.084 17322420.313 12912671.376 10 0 60561 18000.00000 0 12275079.365 16239502.520 15450756.730 10 0 60561 18900.00000 0 10576876.421 15113936.692 17690421.771 10 0 60561 19800.00000 0 8572804.359 14004524.640 19588526.318 10 0 60561 20700.00000 0 6298735.817 12965852.430 21108508.734 10 0 60561 21600.00000 0 3801312.616 12045979.445 22221071.456 10 0 60561 22500.00000 0 1136268.546 11284417.852 22904731.466 10 0 60561 23400.00000 0 -1633621.247 10710484.864 23146226.667 10 0 60561 24300.00000 0 -4440882.081 10342095.027 22940771.314 10 0 60561 25200.00000 0 -7215878.925 10185042.088 22292155.869 10 0 60561 26100.00000 0 -9889451.003 10232800.364 21212688.863 10 0 60561 27000.00000 0 -12395535.714 10466854.681 19722980.740 10 0 60561 27900.00000 0 -14673675.672 10857546.591 17851571.962 10 0 60561 28800.00000 0 -16671306.601 11365403.494 15634410.294 10 0 60561 29700.00000 0 -18345731.976 11942897.307 13114184.731 10 0 60561 30600.00000 0 -19665702.254 12536561.117 10339526.303 10 0 60561 31500.00000 0 -20612531.995 13089376.797 7364088.782 10 0 60561 32400.00000 0 -21180706.665 13543334.315 4245525.061 10 0 60561 33300.00000 0 -21377951.823 13842055.244 1044377.577 10 0 60561 34200.00000 0 -21224759.657 13933369.172 -2177096.372 10 0 60561 35100.00000 0 -20753390.877 13771732.602 -5356141.564 10 0 60561 36000.00000 0 -20006392.517 13320385.647 -8430739.627 10 0 60561 36900.00000 0 -19034693.281 12553152.267 -11340836.152 10 0 60561 37800.00000 0 -17895356.754 11455804.489 -14029534.357 10 0 60561 38700.00000 0 -16649088.033 10026929.424 -16444229.833 10 0 60561 39600.00000 0 -15357600.485 8278259.246 -18537661.926 10 0 60561 40500.00000 0 -14080955.735 6234447.461 -20268859.067 10 0 60561 41400.00000 0 -12874991.347 3932298.828 -21603957.664 10 0 60561 42300.00000 0 -11788946.913 1419484.118 -22516877.070 10 0 60561 43200.00000 0 -10863390.551 -1247206.735 -22989836.386 10 0 60561 44100.00000 0 -10128534.557 -4003999.566 -23013702.553 10 0 60561 45000.00000 0 -9603011.831 -6782568.657 -22588162.925 10 0 60561 45900.00000 0 -9293164.454 -9512664.255 -21721719.488 10 0 60561 46800.00000 0 -9192873.359 -12124823.831 -20431505.772 10 0 60561 47700.00000 0 -9283934.557 -14553052.757 -18742931.343 10 0 60561 48600.00000 0 -9536963.699 -16737361.824 -16689162.376 10 0 60561 49500.00000 0 -9912788.143 -18626055.656 -14310450.159 10 0 60561 50400.00000 0 -10364264.952 -20177677.135 -11653322.485 10 0 60561 51300.00000 0 -10838445.432 -21362528.114 -8769655.479 10 0 60561 52200.00000 0 -11278992.443 -22163705.106 -5715645.608 10 0 60561 53100.00000 0 -11628746.693 -22577609.421 -2550703.390 10 0 60561 54000.00000 0 -11832332.506 -22613913.635 663708.554 10 0 60561 54900.00000 0 -11838692.768 -22294989.131 3865269.814 10 0 60561 55800.00000 0 -11603446.415 -21654821.866 6992005.415 10 0 60561 56700.00000 0 -11090970.078 -20737464.513 9983474.917 10 0 60561 57600.00000 0 -10276117.552 -19595091.876 12781925.241 10 0 60561 58500.00000 0 -9145506.344 -18285742.210 15333386.224 10 0 60561 59400.00000 0 -7698318.704 -16870839.233 17588689.565 10 0 60561 60300.00000 0 -5946584.598 -15412597.849 19504393.616 10 0 60561 61200.00000 0 -3914935.268 -13971420.556 21043598.417 10 0 60561 62100.00000 0 -1639837.344 -12603391.266 22176637.514 10 0 60561 63000.00000 0 831661.756 -11357968.757 22881635.248 10 0 60561 63900.00000 0 3443626.899 -10275973.651 23144920.361 10 0 60561 64800.00000 0 6133299.107 -9387950.772 22961288.940 10 0 60561 65700.00000 0 8833447.776 -8712973.634 22334111.985 10 0 60561 66600.00000 0 11474916.980 -8257940.140 21275285.067 10 0 60561 67500.00000 0 13989263.580 -8017388.892 19805019.890 10 0 60561 68400.00000 0 16311380.556 -7973844.604 17951479.989 10 0 60561 69300.00000 0 18381998.832 -8098679.652 15750265.251 10 0 60561 70200.00000 0 20149964.959 -8353457.605 13243752.678 10 0 60561 71100.00000 0 21574200.250 -8691704.479 10480303.432 10 0 60561 72000.00000 0 22625259.081 -9061035.208 7513349.077 10 0 60561 72900.00000 0 23286419.935 -9405547.313 4400372.633 10 0 60561 73800.00000 0 23554261.540 -9668381.629 1201802.732 10 0 60561 74700.00000 0 23438697.661 -9794341.870 -2020158.427 10 0 60561 75600.00000 0 22962466.827 -9732461.236 -5202750.531 10 0 60561 76500.00000 0 22160096.461 -9438405.536 -8283889.679 10 0 60561 77400.00000 0 21076383.622 -8876608.426 -11203396.514 10 0 60561 78300.00000 0 19764455.697 -8022045.106 -13904192.170 10 0 60561 79200.00000 0 18283492.906 -6861565.996 -16333436.549 10 0 60561 80100.00000 0 16696209.567 -5394730.569 -18443584.378 10 0 60561 81000.00000 0 15066201.821 -3634103.081 -20193336.259 10 0 60561 81900.00000 0 13455275.531 -1604995.242 -21548464.217 10 0 60561 82800.00000 0 11920869.024 655335.050 -22482494.045 10 0 60561 83700.00000 0 10513681.104 3098996.132 -22977230.109 10 0 60561 84600.00000 0 9275605.677 5669231.179 -23023111.830 10 0 60561 85500.00000 0 8238060.742 8302568.290 -22619394.876 10 0 60562 0.00000 0 7420782.155 10931260.724 -21774154.145 10 0 60562 900.00000 0 6831131.709 13485915.366 -20504108.857 10 0 60562 1800.00000 0 6463948.046 15898194.712 -18834275.703 10 0 60562 2700.00000 0 6301942.893 18103483.133 -16797456.864 10 0 60562 3600.00000 0 6316624.226 20043401.991 -14433575.642 10 0 60562 4500.00000 0 6469703.833 21668069.974 -11788874.126 10 0 60562 5400.00000 0 6714926.891 22938014.822 -8914990.407 10 0 60562 6300.00000 0 7000243.459 23825658.098 -5867934.965 10 0 60562 7200.00000 0 7270227.833 24316313.131 -2706987.699 10 0 60562 8100.00000 0 7468641.873 24408657.144 506461.811 10 0 60562 9000.00000 0 7541033.106 24114660.866 3710107.554 10 0 60562 9900.00000 0 7437257.759 23458981.597 6841930.363 10 0 60562 10800.00000 0 7113822.794 22477847.968 9841388.178 10 0 60562 11700.00000 0 6535949.373 21217485.277 12650571.112 10 0 60562 12600.00000 0 5679272.257 19732148.824 15215300.216 10 0 60562 13500.00000 0 4531105.241 18081848.082 17486150.572 10 0 60562 14400.00000 0 3091220.760 16329856.477 19419381.038 10 0 60562 15300.00000 0 1372111.827 14540109.574 20977754.950 10 0 60562 16200.00000 0 -601274.549 12774598.327 22131238.234 10 0 60562 17100.00000 0 -2792322.063 11090863.643 22857563.486 10 0 60562 18000.00000 0 -5154016.780 9539694.112 23142650.757 10 0 60562 18900.00000 0 -7630655.216 8163120.291 22980877.992 10 0 60562 19800.00000 0 -10159920.800 6992787.001 22375196.268 10 0 60562 20700.00000 0 -12675245.780 6048769.985 21337087.198 10 0 60562 21600.00000 0 -15108363.898 5338885.556 19886362.235 10 0 60562 22500.00000 0 -17391950.938 4858522.166 18050805.925 10 0 60562 23400.00000 0 -19462245.972 4591001.813 15865667.752 10 0 60562 24300.00000 0 -21261546.041 4508457.627 13373009.782 10 0 60562 25200.00000 0 -22740471.187 4573192.668 10620920.061 10 0 60562 26100.00000 0 -23859905.124 4739464.756 7662604.495 10 0 60562 27000.00000 0 -24592529.359 4955623.834 4555372.718 10 0 60562 27900.00000 0 -24923884.651 5166512.887 1359536.059 10 0 60562 28800.00000 0 -24852912.902 5316031.347 -1862761.764 10 0 60562 29700.00000 0 -24391954.176 5349752.099 -5048758.559 10 0 60562 30600.00000 0 -23566196.504 5217479.847 -8136307.899 10 0 60562 31500.00000 0 -22412599.634 4875640.263 -11065108.229 10 0 60562 32400.00000 0 -20978336.704 4289395.778 -13777901.068 10 0 60562 33300.00000 0 -19318818.917 3434395.133 -16221612.747 10 0 60562 34200.00000 0 -17495386.714 2298079.247 -18348415.090 10 0 60562 35100.00000 0 -15572765.701 880484.969 -20116682.119 10 0 60562 36000.00000 0 -13616395.957 -805489.985 -21491822.203 10 0 60562 36900.00000 0 -11689748.993 -2734374.175 -22446967.771 10 0 60562 37800.00000 0 -9851747.049 -4868950.903 -22963508.101 10 0 60562 38700.00000 0 -8154394.786 -7161593.713 -23031454.231 10 0 60562 39600.00000 0 -6640723.952 -9556052.607 -22649628.816 10 0 60562 40500.00000 0 -5343137.691 -11989615.250 -21825677.747 10 0 60562 41400.00000 0 -4282223.500 -14395551.448 -20575904.176 10 0 60562 42300.00000 0 -3466083.346 -16705737.117 -18924929.486 10 0 60562 43200.00000 0 -2890206.898 -18853346.695 -16905189.361 10 0 60562 44100.00000 0 -2537890.369 -20775500.414 -14556276.509 10 0 60562 45000.00000 0 -2381180.063 -22415755.229 -11924144.692 10 0 60562 45900.00000 0 -2382297.477 -23726335.426 -9060191.384 10 0 60562 46800.00000 0 -2495482.508 -24670010.520 -6020238.606 10 0 60562 47700.00000 0 -2669174.105 -25221543.474 -2863433.314 10 0 60562 48600.00000 0 -2848433.961 -25368650.839 348910.128 10 0 60562 49500.00000 0 -2977509.323 -25112437.253 3554502.117 10 0 60562 50400.00000 0 -3002425.966 -24467288.911 6691281.168 10 0 60562 51300.00000 0 -2873501.956 -23460233.167 9698605.367 10 0 60562 52200.00000 0 -2547676.924 -22129793.384 12518409.662 10 0 60562 53100.00000 0 -1990559.978 -20524388.631 15096307.865 10 0 60562 54000.00000 0 -1178111.592 -18700346.019 17382619.852 10 0 60562 54900.00000 0 -97890.273 -16719608.629 19333306.242 10 0 60562 55800.00000 0 1250187.126 -14647233.785 20910794.736 10 0 60562 56700.00000 0 2853602.703 -12548784.209 22084684.491 10 0 60562 57600.00000 0 4687522.751 -10487718.358 22832316.968 10 0 60562 58500.00000 0 6715600.083 -8522885.882 23139203.902 10 0 60562 59400.00000 0 8891261.876 -6706229.630 22999305.223 10 0 60562 60300.00000 0 11159432.054 -5080787.255 22415151.971 10 0 60562 61200.00000 0 13458619.661 -3679073.560 21397811.474 10 0 60562 62100.00000 0 15723289.761 -2521909.591 19966694.375 10 0 60562 63000.00000 0 17886421.534 -1617746.738 18149205.457 10 0 60562 63900.00000 0 19882149.978 -962514.340 15980242.781 10 0 60562 64800.00000 0 21648383.367 -539998.137 13501552.203 10 0 60562 65700.00000 0 23129288.595 -322735.196 10760947.075 10 0 60562 66600.00000 0 24277540.864 -273389.512 7811405.759 10 0 60562 67500.00000 0 25056242.854 -346552.087 4710062.285 10 0 60562 68400.00000 0 25440431.339 -490891.004 1517108.165 10 0 60562 69300.00000 0 25418105.659 -651561.451 -1705374.133 10 0 60562 70200.00000 0 24990732.147 -772773.776 -4894623.479 10 0 60562 71100.00000 0 24173200.472 -800409.946 -7988433.921 10 0 60562 72000.00000 0 22993231.199 -684575.832 -10926384.664 10 0 60562 72900.00000 0 21490257.539 -381978.666 -13651040.421 10 0 60562 73800.00000 0 19713827.060 141974.073 -16109096.550 10 0 60562 74700.00000 0 17721590.288 911446.487 -18252444.295 10 0 60562 75600.00000 0 15576961.178 1938893.172 -20039133.162 10 0 60562 76500.00000 0 13346548.958 3224282.271 -21434209.622 10 0 60562 77400.00000 0 11097470.825 4754857.836 -22410414.210 10 0 60562 78300.00000 0 8894660.120 6505453.162 -22948722.276 10 0 60562 79200.00000 0 6798284.601 8439342.773 -23038717.283 10 0 60562 80100.00000 0 4861384.415 10509597.298 -22678789.311 10 0 60562 81000.00000 0 3127829.478 12660883.722 -21876155.357 10 0 60562 81900.00000 0 1630681.732 14831634.369 -20646701.931 10 0 60562 82800.00000 0 391030.011 16956492.219 -19014654.287 10 0 60562 83700.00000 0 -582655.533 18968928.586 -17012080.292 10 0 60562 84600.00000 0 -1294624.982 20803922.212 -14678240.299 10 0 60562 85500.00000 0 -1761405.132 22400586.592 -12058797.580 10 0 60563 0.00000 0 -2010833.118 23704635.041 -9204906.729 10 0 60563 900.00000 0 -2080611.599 24670581.195 -6172197.957 10 0 60563 1800.00000 0 -2016449.495 25263582.085 -3019682.438 10 0 60563 2700.00000 0 -1869870.017 25460850.554 191403.914 10 0 60563 3600.00000 0 -1695780.312 25252578.175 3398791.224 10 0 60563 4500.00000 0 -1549906.829 24642333.236 6540378.990 10 0 60563 5400.00000 0 -1486205.097 23646919.502 9555428.642 10 0 60563 6300.00000 0 -1554352.836 22295703.947 12385722.994 10 0 60563 7200.00000 0 -1797431.080 20629443.386 14976671.415 10 0 60563 8100.00000 0 -2249889.496 18698660.118 17278341.105 10 0 60563 9000.00000 0 -2935879.851 16561634.659 19246396.679 10 0 60563 9900.00000 0 -3868026.113 14282098.602 20842932.125 10 0 60563 10800.00000 0 -5046681.720 11926722.226 22037181.415 10 0 60563 11700.00000 0 -6459704.675 9562499.137 22806096.090 10 0 60563 12600.00000 0 -8082760.298 7254134.043 23134780.381 10 0 60563 13500.00000 0 -9880140.284 5061539.258 23016776.564 10 0 60563 14400.00000 0 -11806066.021 3037541.092 22454195.521 10 0 60563 15300.00000 0 -13806424.612 1225888.999 21457689.631 10 0 60563 16200.00000 0 -15820868.494 -340351.640 20046267.505 10 0 60563 17100.00000 0 -17785194.466 -1639957.334 18246952.391 10 0 60563 18000.00000 0 -19633906.037 -2664206.928 16094288.606 10 0 60563 18900.00000 0 -21302854.745 -3417016.629 13629702.992 10 0 60563 19800.00000 0 -22731851.886 -3914542.850 10900731.017 10 0 60563 20700.00000 0 -23867142.156 -4184267.985 7960119.996 10 0 60563 21600.00000 0 -24663635.338 -4263605.846 4864824.673 10 0 60563 22500.00000 0 -25086801.107 -4198083.972 1674912.985 10 0 60563 23400.00000 0 -25114145.241 -4039178.413 -1547597.590 10 0 60563 24300.00000 0 -24736202.406 -3841892.077 -4739950.617 10 0 60563 25200.00000 0 -23957000.725 -3662179.493 -7839884.080 10 0 60563 26100.00000 0 -22793975.596 -3554328.300 -10786861.188 10 0 60563 27000.00000 0 -21277333.828 -3568410.446 -13523272.804 10 0 60563 27900.00000 0 -19448892.895 -3747913.724 -15995585.906 10 0 60563 28800.00000 0 -17360443.066 -4127657.029 -18155413.335 10 0 60563 29700.00000 0 -15071700.990 -4732080.692 -19960481.709 10 0 60563 30600.00000 0 -12647941.268 -5573987.175 -21375476.652 10 0 60563 31500.00000 0 -10157406.600 -6653787.818 -22372747.188 10 0 60563 32400.00000 0 -7668606.707 -7959289.308 -22932854.450 10 0 60563 33300.00000 0 -5247620.826 -9466029.990 -23044953.399 10 0 60563 34200.00000 0 -2955518.276 -11138152.163 -22707000.012 10 0 60563 35100.00000 0 -846006.016 -12929773.264 -21925780.365 10 0 60563 36000.00000 0 1036598.040 -14786797.286 -20716761.890 10 0 60563 36900.00000 0 2658981.636 -16649088.908 -19103770.970 10 0 60563 37800.00000 0 3999978.470 -18452917.398 -17118504.691 10 0 60563 38700.00000 0 5051186.655 -20133566.177 -14799887.975 10 0 60563 39600.00000 0 5817042.417 -21627997.160 -12193290.473 10 0 60563 40500.00000 0 6314349.414 -22877457.276 -9349620.277 10 0 60563 41400.00000 0 6571287.241 -23829917.519 -6324313.820 10 0 60563 42300.00000 0 6625944.492 -24442242.635 -3176243.156 10 0 60563 43200.00000 0 6524441.552 -24682001.491 33436.912 10 0 60563 44100.00000 0 6318724.964 -24528843.867 3242478.668 10 0 60563 45000.00000 0 6064128.377 -23975387.986 6388744.775 10 0 60563 45900.00000 0 5816803.993 -23027583.846 9411401.937 10 0 60563 46800.00000 0 5631133.013 -21704539.311 12252082.498 10 0 60563 47700.00000 0 5557223.564 -20037818.040 14855992.777 10 0 60563 48600.00000 0 5638600.225 -18070239.869 17172948.419 10 0 60563 49500.00000 0 5910180.675 -15854234.182 19158318.867 10 0 60563 50400.00000 0 6396622.754 -13449814.519 20773864.947 10 0 60563 51300.00000 0 7111109.796 -10922257.542 21988455.707 10 0 60563 52200.00000 0 8054624.132 -8339580.765 22778652.760 10 0 60563 53100.00000 0 9215738.892 -5769921.284 23129152.562 10 0 60563 54000.00000 0 10570937.387 -3278921.318 23033079.245 10 0 60563 54900.00000 0 12085448.212 -927225.989 22492122.842 10 0 60563 55800.00000 0 13714563.440 1231805.553 21516519.928 10 0 60563 56700.00000 0 15405387.714 3154082.987 20124876.093 10 0 60563 57600.00000 0 17098948.436 4806380.853 18343831.922 10 0 60563 58500.00000 0 18732582.019 6167482.134 16207576.744 10 0 60563 59400.00000 0 20242499.324 7228821.721 13757216.991 10 0 60563 60300.00000 0 21566425.079 7994602.111 11040008.673 10 0 60563 61200.00000 0 22646201.969 8481375.221 8108466.308 10 0 60563 62100.00000 0 23430250.397 8717106.204 5019363.379 10 0 60563 63000.00000 0 23875779.761 8739757.081 1832642.065 10 0 60563 63900.00000 0 23950656.441 8595448.467 -1389747.504 10 0 60563 64800.00000 0 23634847.284 8336276.213 -4585056.078 10 0 60563 65700.00000 0 22921374.729 8017875.170 -7690968.125 10 0 60563 66600.00000 0 21816740.057 7696833.900 -10646833.363 10 0 60563 67500.00000 0 20340793.944 7428071.347 -13394871.205 10 0 60563 68400.00000 0 18526057.155 7262288.819 -15881322.487 10 0 60563 69300.00000 0 16416518.175 7243607.893 -18057523.670 10 0 60563 70200.00000 0 14065957.331 7407497.208 -19880880.309 10 0 60563 71100.00000 0 11535867.676 7779078.702 -21315718.788 10 0 60563 72000.00000 0 8893060.520 8371887.491 -22333998.028 10 0 60563 72900.00000 0 6207057.185 9187139.720 -22915866.129 10 0 60563 73800.00000 0 3547377.672 10213540.596 -23050050.479 10 0 60563 74700.00000 0 980841.255 11427641.171 -22734073.575 10 0 60563 75600.00000 0 -1431006.933 12794728.593 -21974290.824 10 0 60563 76500.00000 0 -3634235.048 14270211.407 -20785750.412 10 0 60563 77400.00000 0 -5584531.662 15801440.156 -19191879.229 10 0 60563 78300.00000 0 -7248797.878 17329884.970 -17224002.496 10 0 60563 79200.00000 0 -8606259.598 18793576.755 -14920708.179 10 0 60563 80100.00000 0 -9649055.934 20129707.670 -12327070.379 10 0 60563 81000.00000 0 -10382282.364 21277280.271 -9493748.676 10 0 60563 81900.00000 0 -10823490.471 22179693.244 -6475982.651 10 0 60563 82800.00000 0 -11001669.048 22787154.849 -3332502.710 10 0 60563 83700.00000 0 -10955753.091 23058823.250 -124379.623 10 0 60563 84600.00000 0 -10732726.590 22964584.948 3086164.056 10 0 60563 85500.00000 0 -10385401.561 22486398.294 6236957.200 10 0 60564 0.00000 0 -9969968.573 21619147.754 9267074.522 10 0 60564 900.00000 0 -9543422.457 20370974.568 12118001.373 10 0 60564 1800.00000 0 -9160972.024 18763073.008 14734743.544 10 0 60564 2700.00000 0 -8873541.083 16828960.537 17066867.751 10 0 60564 3600.00000 0 -8725464.878 14613254.078 19069450.692 10 0 60564 4500.00000 0 -8752476.644 12170002.893 20703922.204 10 0 60564 5400.00000 0 -8980066.969 9560646.530 21938788.305 10 0 60564 6300.00000 0 -9422283.213 6851680.897 22750222.251 10 0 60564 7200.00000 0 -10081018.295 4112126.915 23122513.927 10 0 60564 8100.00000 0 -10945818.411 1410903.814 23048370.112 10 0 60564 9000.00000 0 -11994218.458 -1185787.197 22529060.306 10 0 60564 9900.00000 0 -13192592.640 -3616963.394 21574405.107 10 0 60564 10800.00000 0 -14497487.046 -5829144.113 20202606.357 10 0 60564 11700.00000 0 -15857381.292 -7778324.709 18439920.709 10 0 60564 12600.00000 0 -17214808.548 -9431560.065 16320180.688 10 0 60564 13500.00000 0 -18508748.122 -10768092.196 13884169.999 10 0 60564 14400.00000 0 -19677192.791 -11779974.501 11178862.424 10 0 60564 15300.00000 0 -20659784.845 -12472165.495 8256536.534 10 0 60564 16200.00000 0 -21400410.855 -12862086.586 5173781.131 10 0 60564 17100.00000 0 -21849645.724 -12978660.751 1990409.012 10 0 60564 18000.00000 0 -21966941.704 -12860870.996 -1231700.773 10 0 60564 18900.00000 0 -21722467.884 -12555898.163 -4429809.915 10 0 60564 19800.00000 0 -21098519.583 -12116916.179 -7541553.078 10 0 60564 20700.00000 0 -20090434.916 -11600638.138 -10506170.100 10 0 60564 21600.00000 0 -18706976.486 -11064718.075 -13265712.358 10 0 60564 22500.00000 0 -16970159.092 -10565120.140 -15766197.690 10 0 60564 23400.00000 0 -14914528.230 -10153568.902 -17958688.937 10 0 60564 24300.00000 0 -12585918.077 -9875191.339 -19800272.864 10 0 60564 25200.00000 0 -10039740.286 -9766453.007 -21254918.295 10 0 60564 26100.00000 0 -7338875.485 -9853478.178 -22294195.054 10 0 60564 27000.00000 0 -4551256.538 -10150826.919 -22897838.498 10 0 60564 27900.00000 0 -1747245.954 -10660782.200 -23054148.009 10 0 60564 28800.00000 0 1003081.422 -11373177.678 -22760211.509 10 0 60564 29700.00000 0 3632635.527 -12265773.287 -22021952.046 10 0 60564 30600.00000 0 6079874.363 -13305161.930 -20853996.376 10 0 60564 31500.00000 0 8291125.932 -14448167.565 -19279369.307 10 0 60564 32400.00000 0 10222572.219 -15643673.955 -17329021.299 10 0 60564 33300.00000 0 11841813.492 -16834804.983 -15041200.208 10 0 60564 34200.00000 0 13128949.526 -17961362.719 -12460681.266 10 0 60564 35100.00000 0 14077135.312 -18962418.850 -9637872.094 10 0 60564 36000.00000 0 14692591.310 -19778949.088 -6627811.923 10 0 60564 36900.00000 0 14994071.511 -20356398.981 -3489086.034 10 0 60564 37800.00000 0 15011815.368 -20647073.126 -282677.788 10 0 60564 38700.00000 0 14786031.109 -20612247.906 2929218.618 10 0 60564 39600.00000 0 14364977.152 -20223920.141 6084401.181 10 0 60564 40500.00000 0 13802724.521 -19466119.777 9121855.734 10 0 60564 41400.00000 0 13156695.694 -18335733.325 11982921.712 10 0 60564 42300.00000 0 12485083.747 -16842805.246 14612406.669 10 0 60564 43200.00000 0 11844259.758 -15010306.050 16959629.682 10 0 60564 44100.00000 0 11286276.096 -12873377.642 18979375.537 10 0 60564 45000.00000 0 10856568.613 -10478087.449 20632743.490 10 0 60564 45900.00000 0 10591952.059 -7879742.539 21887876.533 10 0 60564 46800.00000 0 10518990.788 -5140832.173 22720559.202 10 0 60564 47700.00000 0 10652811.408 -2328681.992 23114674.132 10 0 60564 48600.00000 0 10996406.128 487085.760 23062509.784 10 0 60564 49500.00000 0 11540455.837 3237183.905 22564913.955 10 0 60564 50400.00000 0 12263681.062 5855277.978 21631289.902 10 0 60564 51300.00000 0 13133707.725 8280484.352 20279434.239 10 0 60564 52200.00000 0 14108413.739 10459647.602 18535218.088 10 0 60564 53100.00000 0 15137702.753 12349304.210 16432115.493 10 0 60564 54000.00000 0 16165633.509 13917251.783 14010585.661 10 0 60564 54900.00000 0 17132818.045 15143658.346 11317318.287 10 0 60564 55800.00000 0 17978990.009 16021664.585 8404354.030 10 0 60564 56700.00000 0 18645636.252 16557452.396 5328094.915 10 0 60564 57600.00000 0 19078581.085 16769775.141 2148222.166 10 0 60564 58500.00000 0 19230413.381 16688967.541 -1073458.530 10 0 60564 59400.00000 0 19062652.266 16355475.336 -4274222.135 10 0 60564 60300.00000 0 18547557.292 15817965.700 -7391655.822 10 0 60564 61200.00000 0 17669503.405 15131097.872 -10364891.764 10 0 60564 62100.00000 0 16425859.189 14353048.667 -13135815.395 10 0 60564 63000.00000 0 14827327.921 13542898.757 -15650223.455 10 0 60564 63900.00000 0 12897734.119 12757992.169 -17858906.873 10 0 60564 64800.00000 0 10673262.221 12051383.017 -19718635.139 10 0 60564 65700.00000 0 8201177.929 11469479.945 -21193020.849 10 0 60564 66600.00000 0 5538085.277 11049990.287 -22253245.884 10 0 60564 67500.00000 0 2747792.701 10820252.828 -22878633.841 10 0 60564 68400.00000 0 -101121.760 10796031.023 -23057056.864 10 0 60564 69300.00000 0 -2937943.010 10980818.339 -22785168.795 10 0 60564 70200.00000 0 -5692537.818 11365684.961 -22068460.490 10 0 60564 71100.00000 0 -8298045.400 11929671.465 -20921137.040 10 0 60564 72000.00000 0 -10693426.457 12640711.366 -19365820.510 10 0 60564 72900.00000 0 -12825764.114 13457041.652 -17433085.499 10 0 60564 73800.00000 0 -14652221.272 14329039.529 -15160838.253 10 0 60564 74700.00000 0 -16141573.976 15201405.628 -12593553.282 10 0 60564 75600.00000 0 -17275258.921 16015599.441 -9781384.126 10 0 60564 76500.00000 0 -18047894.158 16712422.574 -6779167.332 10 0 60564 77400.00000 0 -18467254.540 17234639.671 -3645340.582 10 0 60564 78300.00000 0 -18553706.561 17529525.989 -440797.256 10 0 60564 79200.00000 0 -18339129.852 17551234.403 2772299.432 10 0 60564 80100.00000 0 -17865373.800 17262882.940 5931719.277 10 0 60564 81000.00000 0 -17182316.737 16638276.254 8976361.647 10 0 60564 81900.00000 0 -16345611.005 15663190.256 11847423.288 10 0 60564 82800.00000 0 -15414209.477 14336167.613 14489515.874 10 0 60564 83700.00000 0 -14447777.315 12668792.212 16851713.386 10 0 60564 84600.00000 0 -13504096.605 10685432.061 18888511.107 10 0 60564 85500.00000 0 -12636571.087 8422461.722 20560679.921 99